Date String (YYYY-MM-DD hh:mm:ss) UTC,Instrument flags,Ambient pressure (hPa),Sample flow (lpm),Bypass flow (lpm),Sample temperature (°C),Ambient temperature (°C),ASC tube jacket temperature (°C),LED temperature (°C),Box temperature (°C),Sample RH (%),Span deviation,Mass concentration (μg/m³),Mass concentration (μg/m³),Mass concentration (μg/m³)
DateTimeUTC,F1_M11,P_M11,Q1_M11,Q2_M11,T1_M11,T2_M11,T3_M11,T4_M11,T5_M11,U1_M11,ZSPAN_M11,X0_M11,X2_M11,X1_M11
2022-02-04 23:00:00,,0832.1,4.99,0.00,22.8,22.3,00.0,31.6,24.6,07.9,0000.0,0007.69,0003.17,0002.46
2022-02-04 23:01:00,,0832.1,5.01,0.00,22.8,22.4,00.0,31.6,24.6,07.7,0000.0,0007.42,0003.18,0002.48
2022-02-04 23:02:00,,0832.1,4.99,0.00,22.8,22.4,00.0,31.7,24.6,07.7,0000.0,0007.34,0003.19,0002.49
2022-02-04 23:03:00,,0832.1,5.01,0.00,22.8,22.4,00.0,31.7,24.6,07.7,0000.0,0007.18,0003.16,0002.49
2022-02-04 23:04:00,,0832.1,4.99,0.00,22.9,22.4,00.0,31.7,24.7,07.9,0000.0,0007.17,0003.15,0002.51
2022-02-04 23:05:00,,0832.1,5.01,0.00,22.9,22.4,00.0,31.7,24.7,07.8,0000.0,0007.12,0003.13,0002.49
2022-02-04 23:06:00,,0832.1,5.00,0.00,22.9,22.4,00.0,31.7,24.7,07.7,0000.0,0007.14,0003.14,0002.50
2022-02-04 23:07:00,,0832.1,4.99,0.00,22.9,22.4,00.0,31.7,24.7,07.9,0000.0,0005.66,0003.13,0002.52
2022-02-04 23:08:00,,0832.1,5.02,0.00,22.9,22.4,00.0,31.7,24.7,07.8,0000.0,0005.17,0003.14,0002.55
2022-02-04 23:09:00,,0832.1,4.99,0.00,22.9,22.4,00.0,31.8,24.7,07.8,0000.0,0005.09,0003.13,0002.56
2022-02-04 23:10:00,,0832.1,5.00,0.00,22.9,22.4,00.0,31.8,24.7,07.7,0000.0,0005.04,0003.14,0002.57
2022-02-04 23:11:00,,0832.1,5.00,0.00,22.9,22.4,00.0,31.8,24.7,07.8,0000.0,0005.10,0003.15,0002.57
2022-02-04 23:12:00,,0832.1,4.99,0.00,22.9,22.5,00.0,31.8,24.8,07.9,0000.0,0005.13,0003.14,0002.57
2022-02-04 23:13:00,,0832.1,5.02,0.00,23.0,22.5,00.0,31.8,24.8,07.9,0000.0,0005.06,0003.13,0002.59
2022-02-04 23:14:00,,0832.1,4.99,0.00,23.0,22.5,00.0,31.8,24.8,07.6,0000.0,0005.28,0003.16,0002.61
2022-02-04 23:15:00,,0832.1,5.00,0.00,23.0,22.5,00.0,31.8,24.8,07.7,0000.0,0005.38,0003.19,0002.62
2022-02-04 23:16:00,,0832.1,5.01,0.00,23.0,22.5,00.0,31.8,24.8,07.8,0000.0,0005.81,0003.21,0002.64
2022-02-04 23:17:00,,0832.1,5.00,0.00,23.0,22.5,00.0,31.9,24.8,07.8,0000.0,0006.64,0003.20,0002.64
2022-02-04 23:18:00,,0832.1,5.00,0.00,23.0,22.5,00.0,31.9,24.8,07.8,0000.0,0006.65,0003.21,0002.66
2022-02-04 23:19:00,,0832.1,4.99,0.00,23.0,22.5,00.0,31.9,24.8,07.8,0000.0,0006.63,0003.21,0002.66
2022-02-04 23:20:00,,0832.0,5.01,0.00,23.0,22.5,00.0,31.9,24.8,08.1,0000.0,0006.70,0003.22,0002.64
2022-02-04 23:21:00,,0832.1,4.99,0.00,23.0,22.5,00.0,31.9,24.9,08.3,0000.0,0006.74,0003.22,0002.63
2022-02-04 23:22:00,,0832.1,5.01,0.00,23.0,22.6,00.0,31.9,24.9,08.1,0000.0,0006.68,0003.21,0002.63
2022-02-04 23:23:00,,0832.1,5.00,0.00,23.0,22.6,00.0,31.9,24.8,08.0,0000.0,0006.68,0003.22,0002.65
2022-02-04 23:24:00,,0832.1,5.00,0.00,23.0,22.6,00.0,31.9,24.8,07.9,0000.0,0006.66,0003.21,0002.65
2022-02-04 23:25:00,,0832.1,5.00,0.00,23.1,22.6,00.0,32.0,24.8,07.8,0000.0,0006.50,0003.19,0002.67
2022-02-04 23:26:00,,0832.1,4.99,0.00,23.0,22.6,00.0,32.0,24.8,07.6,0000.0,0007.05,0003.20,0002.74
2022-02-04 23:27:00,,0832.0,5.01,0.00,23.1,22.6,00.0,32.0,24.8,07.6,0000.0,0007.00,0003.28,0002.84
2022-02-04 23:28:00,,0832.0,4.99,0.00,23.1,22.6,00.0,32.0,24.9,07.5,0000.0,0006.18,0003.33,0002.95
2022-02-04 23:29:00,,0831.9,5.01,0.00,23.1,22.6,00.0,32.0,24.9,07.5,0000.0,0006.21,0003.35,0003.01
2022-02-04 23:30:00,,0831.9,5.00,0.00,23.1,22.6,00.0,32.0,24.9,07.5,0000.0,0006.33,0003.40,0003.07
2022-02-04 23:31:00,,0832.0,5.00,0.00,23.1,22.6,00.0,32.0,24.9,07.5,0000.0,0006.43,0003.43,0003.13
2022-02-04 23:32:00,,0832.0,5.00,0.00,23.1,22.6,00.0,32.0,24.9,07.5,0000.0,0006.43,0003.45,0003.17
2022-02-04 23:33:00,,0832.0,5.00,0.00,23.1,22.6,00.0,32.0,24.9,07.5,0000.0,0006.97,0003.50,0003.21
2022-02-04 23:34:00,,0832.0,4.99,0.00,23.1,22.6,00.0,32.0,24.9,07.5,0000.0,0008.53,0003.56,0003.24
2022-02-04 23:35:00,,0832.0,5.02,0.00,23.1,22.6,00.0,32.0,24.9,07.5,0000.0,0008.72,0003.61,0003.26
2022-02-04 23:36:00,,0831.9,4.99,0.00,23.1,22.6,00.0,32.0,24.9,07.5,0000.0,0008.87,0003.66,0003.29
2022-02-04 23:37:00,,0831.9,5.02,0.00,23.1,22.6,00.0,32.0,24.9,07.5,0000.0,0008.67,0003.67,0003.28
2022-02-04 23:38:00,,0832.0,4.99,0.00,23.1,22.6,00.0,32.0,24.9,07.4,0000.0,0008.56,0003.64,0003.26
2022-02-04 23:39:00,,0832.0,5.00,0.00,23.1,22.6,00.0,32.0,24.9,07.4,0000.0,0008.58,0003.62,0003.23
2022-02-04 23:40:00,,0832.0,4.99,0.00,23.1,22.6,00.0,32.1,24.9,07.4,0000.0,0008.63,0003.62,0003.22
2022-02-04 23:41:00,,0832.0,5.02,0.00,23.1,22.6,00.0,32.1,24.9,07.4,0000.0,0008.70,0003.62,0003.21
2022-02-04 23:42:00,,0832.0,5.00,0.00,23.1,22.6,00.0,32.1,24.9,07.4,0000.0,0008.75,0003.63,0003.20
2022-02-04 23:43:00,,0832.0,5.01,0.00,23.2,22.6,00.0,32.1,24.9,07.4,0000.0,0008.82,0003.65,0003.19
2022-02-04 23:44:00,,0832.0,4.99,0.00,23.2,22.6,00.0,32.1,24.9,07.4,0000.0,0008.48,0003.63,0003.18
2022-02-04 23:45:00,,0832.0,5.01,0.00,23.2,22.6,00.0,32.1,24.9,07.4,0000.0,0007.15,0003.61,0003.18
2022-02-04 23:46:00,,0832.0,5.00,0.00,23.1,22.6,00.0,32.1,24.9,07.4,0000.0,0007.03,0003.61,0003.18
2022-02-04 23:47:00,,0832.0,5.00,0.00,23.1,22.6,00.0,32.1,24.9,07.4,0000.0,0006.96,0003.62,0003.18
2022-02-04 23:48:00,,0832.0,4.99,0.00,23.1,22.6,00.0,32.1,24.9,07.4,0000.0,0007.77,0003.61,0003.19
2022-02-04 23:49:00,,0831.9,5.01,0.00,23.1,22.6,00.0,32.1,24.9,07.4,0000.0,0008.42,0003.59,0003.20
2022-02-04 23:50:00,,0831.9,4.99,0.00,23.1,22.6,00.0,32.1,24.9,07.4,0000.0,0008.44,0003.59,0003.21
2022-02-04 23:51:00,,0831.9,5.00,0.00,23.1,22.5,00.0,32.1,24.9,07.4,0000.0,0008.42,0003.60,0003.22
2022-02-04 23:52:00,,0831.8,5.00,0.00,23.1,22.5,00.0,32.1,24.9,07.5,0000.0,0008.35,0003.60,0003.22
2022-02-04 23:53:00,,0831.7,5.01,0.00,23.1,22.5,00.0,32.1,24.9,07.5,0000.0,0008.47,0003.59,0003.23
2022-02-04 23:54:00,,0831.7,5.01,0.00,23.1,22.5,00.0,32.1,24.8,07.5,0000.0,0008.42,0003.58,0003.24
2022-02-04 23:55:00,,0831.7,4.98,0.00,23.1,22.5,00.0,32.1,24.8,07.5,0000.0,0008.55,0003.64,0003.26
2022-02-04 23:56:00,,0831.7,5.02,0.00,23.1,22.5,00.0,32.1,24.8,07.5,0000.0,0009.04,0003.64,0003.28
2022-02-04 23:57:00,,0831.7,4.98,0.00,23.1,22.5,00.0,32.1,24.8,07.5,0000.0,0009.57,0003.67,0003.29
2022-02-04 23:58:00,,0831.7,5.02,0.00,23.1,22.5,00.0,32.1,24.8,07.5,0000.0,0009.72,0003.65,0003.31
2022-02-04 23:59:00,,0831.7,4.99,0.00,23.1,22.5,00.0,32.1,24.8,07.5,0000.0,0009.25,0003.65,0003.33
